Regional Weather Roundup
Issued by NWS

Home | Current Version | Previous Version | Graphics & Text | Print | Product List | Glossary On
Versions: 1 2 3 4 5 6 7 8 9 10 11 12 13 14 15 16 17 18 19 20 21 22 23 24 25 26 27 28 29 30 31 32 33 34 35 36 37 38 39 40 41 42 43 44 45 46 47 48 49 50
000
ASUS45 KABQ 240601
RWRNM
NEW MEXICO REGIONAL WEATHER ROUNDUP
NATIONAL WEATHER SERVICE ALBUQUERQUE NM
1100 PM MST THU FEB 23 2017

NOTE: "FAIR" MEANS FEW OR NO CLOUDS BELOW 12,000 FEET AGL WITH NO
       SIGNIFICANT WEATHER OR OBSTRUCTIONS TO VISION.

      THIS PRODUCT IS RELEASED AS TWO VERSIONS.  ONE VERSION NEAR
      THE TOP OF THE HOUR CONTAINING PRELIMINARY DATA FROM ALBUQUERQUE
      AND OTHER STATIONS.  A FINAL VERSION WITH ADDITIONAL DATA IS
      ISSUED ABOUT 10 MINUTES AFTER THE HOUR.

NMZ501-503-504-510>518-240700-
NORTHWEST PLATEAU/NORTHCENTRAL MOUNTAINS

CITY           SKY/WX    TMP DP  RH WIND       PRES   REMARKS
FARMINGTON     CLOUDY    30   6  36 W3        29.80R
6HR MIN TEMP:  29; 6HR MAX TEMP:  39;

LOS ALAMOS     FAIR      31   5  33 W3        29.77S
SANTA FE       CLOUDY    34   9  35 NW6       29.76S WCI  29
6HR MIN TEMP:  32; 6HR MAX TEMP:  45;

TAOS           CLOUDY    25   0  33 NW3       29.76S
ANGEL FIRE     CLOUDY    23   3  42 W14       29.74R WCI  10

$$
NMZ402-403-502-505>509-240700-
WESTCENTRAL MOUNTAINS/SOUTHWEST MOUNTAINS

CITY           SKY/WX    TMP DP  RH WIND       PRES   REMARKS
GALLUP         CLOUDY    32  10  40 SW15      29.84R WCI  22
6HR MIN TEMP:  32; 6HR MAX TEMP:  40;

GRANTS         CLOUDY    33  14  45 W20G28    29.84R WCI  21
SILVER CITY    FAIR      34  13  42 W12       29.90S WCI  26

$$
NMZ407-409-411-412-240700-
SOUTHERN DESERTS

CITY           SKY/WX    TMP DP  RH WIND       PRES   REMARKS
DEMING         FAIR      42  14  32 NW6       29.89R
6HR MIN TEMP:  42; 6HR MAX TEMP:  63;

LAS CRUCES     FAIR      47   8  20 W22G28    29.86F
HOLLOMAN AFB   FAIR      49   5  17 SW15      29.86S
ALAMOGORDO     FAIR      48   5  17 SE3       29.87R
T OR C         FAIR      45   6  20 SW8       29.82S
6HR MIN TEMP:  45; 6HR MAX TEMP:  60;


$$
NMZ519>523-240700-
CENTRAL VALLEYS/CENTRAL HIGHLANDS

CITY           SKY/WX    TMP DP  RH WIND       PRES   REMARKS
ALBUQUERQUE    FAIR      38  12  34 W9        29.81R WCI  31
6HR MIN TEMP:  38; 6HR MAX TEMP:  52;

DOUBLE EAGLE   CLOUDY    32  14  46 W8        29.81R WCI  25
MORIARTY ARPT  FAIR      29   9  43 S6        29.79S WCI  22
6HR MIN TEMP:  28; 6HR MAX TEMP:  50;

CLINES CORNERS FAIR      26   8  46 W12       29.78S WCI  16
6HR MIN TEMP:  26; 6HR MAX TEMP:  45;

BELEN          FAIR      33  13  44 CALM      29.82R
6HR MIN TEMP:  33; 6HR MAX TEMP:  57;

SOCORRO        FAIR      44  -1  15 NW17      29.80S
6HR MIN TEMP:  42; 6HR MAX TEMP:  60;


$$
NMZ524>526-539-540-240700-
SOUTHCENTRAL MOUNTAINS

CITY           SKY/WX    TMP DP  RH WIND       PRES   REMARKS
RUIDOSO        NOT AVBL

$$
NMZ527>531-240700-
NORTHEAST HIGHLANDS/NORTHEAST PLAINS

CITY           SKY/WX    TMP DP  RH WIND       PRES   REMARKS
LAS VEGAS      FAIR      34   8  33 W28G35    29.71F WCI  21
6HR MIN TEMP:  31; 6HR MAX TEMP:  43;

RATON          FAIR      29   0  28 CALM      29.70F
6HR MIN TEMP:  25; 6HR MAX TEMP:  45;

CLAYTON        FAIR      30  27  88 N16       29.71R WCI  19
6HR MIN TEMP:  29; 6HR MAX TEMP:  57; 6HR PCP: TRACE;


$$
NMZ532>537-240700-
EASTCENTRAL PLAINS

CITY           SKY/WX    TMP DP  RH WIND       PRES   REMARKS
TUCUMCARI      FAIR      43  11  27 NE5       29.72R
6HR MIN TEMP:  36; 6HR MAX TEMP:  65;

CANNON AFB     FAIR      42  10  27 SW8       29.73R
6HR MIN TEMP:  42; 6HR MAX TEMP:  67;

CLOVIS AIRPORT FAIR      39  14  35 NW13      29.73R WCI  32

$$
NMZ028-029-538-240700-
SOUTHEAST PLAINS

CITY           SKY/WX    TMP DP  RH WIND       PRES   REMARKS
ROSWELL        FAIR      53   2  12 W12         N/A
6HR MIN TEMP:  52; 6HR MAX TEMP:  70;

ARTESIA        FAIR      48  16  27 W12       29.75S
CARLSBAD       FAIR      59  12  15 W16       29.74R
6HR MIN TEMP:  53; 6HR MAX TEMP:  73;

HOBBS          FAIR      54  19  26 SW12      29.75R


$$




USA.gov is the U.S. government's official web portal to all federal, state and local government web resources and services.